EW3204 Weather Reports


Display with metric or nautical units.
time (UTC)temp
F
wind
direction
speed
MPH
gust
MPH
rain 1hr
in
rain 24hr
in
rain mn
in
humidity
%
barometer
mb
20260510203017 99 74 7.0 0.0 0.00 0.00 0.00 4 1006.7
20260510201514 99 101 6.0 0.0 0.00 0.00 0.00 3 1006.8
20260510200010 99 71 6.0 0.0 0.00 0.00 0.00 3 1006.8
20260510194510 98 19 5.0 0.0 0.00 0.00 0.00 2 1006.9
20260510193002 98 56 5.0 0.0 0.00 0.00 0.00 1 1007.1
20260510191600 98 108 6.0 0.0 0.00 0.00 0.00 1 1007.1
20260510190106 97 52 7.0 0.0 0.00 0.00 0.00 1 1007.2
20260510184558 97 31 5.0 0.0 0.00 0.00 0.00 1 1007.2
20260510183044 97 144 4.0 0.0 0.00 0.00 0.00 1 1007.3
20260510181550 97 73 3.0 0.0 0.00 0.00 0.00 100 1007.3
20260510180037 96 49 3.0 0.0 0.00 0.00 0.00 1 1007.3
20260510174532 96 127 3.0 0.0 0.00 0.00 0.00 1 1007.3
20260510173027 95 76 3.0 0.0 0.00 0.00 0.00 1 1007.3
20260510170019 94 114 2.0 0.0 0.00 0.00 0.00 1 1007.2
20260510164515 93 52 2.0 0.0 0.00 0.00 0.00 1 1007.2
20260510163011 94 50 1.0 0.0 0.00 0.00 0.00 2 1007.1
20260510161506 92 337 1.0 0.0 0.00 0.00 0.00 2 1007.0
20260510160006 91 337 1.0 0.0 0.00 0.00 0.00 3 1006.9
20260510154601 89 304 0.0 0.0 0.00 0.00 0.00 3 1006.8
20260510153058 87 304 1.0 0.0 0.00 0.00 0.00 3 1006.8
20260510151549 85 317 3.0 0.0 0.00 0.00 0.00 4 1006.7
20260510150051 84 299 3.0 0.0 0.00 0.00 0.00 5 1006.7
20260510144555 82 298 0.0 0.0 0.00 0.00 0.00 5 1006.6
20260510143036 80 285 1.0 0.0 0.00 0.00 0.00 5 1006.3
20260510141534 78 285 2.0 0.0 0.00 0.00 0.00 6 1006.2
20260510140028 76 281 2.0 0.0 0.00 0.00 0.00 6 1006.0
20260510134524 75 283 3.0 0.0 0.00 0.00 0.00 7 1005.9
20260510133018 75 292 4.0 0.0 0.00 0.00 0.00 7 1005.7
20260510131515 76 239 1.0 0.0 0.00 0.00 0.00 5 1005.4
20260510130013 76 233 2.0 0.0 0.00 0.00 0.00 5 1005.3
20260510124507 75 244 2.0 0.0 0.00 0.00 0.00 6 1005.3
20260510123002 75 244 2.0 0.0 0.00 0.00 0.00 6 1005.3
20260510120054 76 256 2.0 0.0 0.00 0.00 0.00 6 1005.2
20260510114600 76 226 1.0 0.0 0.00 0.00 0.00 4 1005.1
20260510113051 76 296 2.0 0.0 0.00 0.00 0.00 7 1005.2
20260510111541 77 219 2.0 0.0 0.00 0.00 0.00 4 1005.1
20260510110047 76 217 4.0 0.0 0.00 0.00 0.00 4 1005.2
20260510104533 77 227 2.0 0.0 0.00 0.00 0.00 4 1005.1
20260510103028 76 245 3.0 0.0 0.00 0.00 0.00 5 1005.1
20260510101524 77 208 5.0 0.0 0.00 0.00 0.00 4 1005.0
20260510100021 77 210 4.0 0.0 0.00 0.00 0.00 4 1005.0
20260510094527 76 205 5.0 0.0 0.00 0.00 0.00 4 1004.9
20260510093012 77 227 6.0 0.0 0.00 0.00 0.00 4 1004.9
20260510091508 78 217 5.0 0.0 0.00 0.00 0.00 4 1004.8
20260510090004 78 236 4.0 0.0 0.00 0.00 0.00 4 1004.9
20260510084615 77 227 3.0 0.0 0.00 0.00 0.00 5 1005.0
20260510083055 78 256 3.0 0.0 0.00 0.00 0.00 8 1005.1
20260510081554 78 222 5.0 0.0 0.00 0.00 0.00 5 1005.1
20260510080059 77 284 3.0 0.0 0.00 0.00 0.00 8 1005.2
20260510074550 77 151 2.0 0.0 0.00 0.00 0.00 8 1005.3
20260510073050 77 151 1.0 0.0 0.00 0.00 0.00 11 1005.3
20260510071545 77 151 1.0 0.0 0.00 0.00 0.00 11 1005.3
20260510070046 80 151 3.0 0.0 0.00 0.00 0.00 11 1005.1
20260510064537 81 151 1.0 0.0 0.00 0.00 0.00 7 1005.1
20260510063034 82 151 2.0 0.0 0.00 0.00 0.00 8 1005.1
20260510061523 81 151 3.0 0.0 0.00 0.00 0.00 11 1005.0
20260510060033 82 128 3.0 0.0 0.00 0.00 0.00 11 1005.0
20260510054518 83 113 2.0 0.0 0.00 0.00 0.00 9 1004.9
20260510053010 83 162 3.0 0.0 0.00 0.00 0.00 9 1005.1
20260510051507 84 167 1.0 0.0 0.00 0.00 0.00 10 1005.1
20260510050001 84 152 2.0 0.0 0.00 0.00 0.00 10 1005.0
20260510044558 84 59 2.0 0.0 0.00 0.00 0.00 10 1005.0
20260510043053 85 127 2.0 0.0 0.00 0.00 0.00 10 1004.8
20260510041551 87 184 4.0 0.0 0.00 0.00 0.00 7 1004.7
20260510040045 87 288 6.0 0.0 0.00 0.00 0.00 7 1004.5
20260510034539 87 289 5.0 0.0 0.00 0.00 0.00 8 1004.3
20260510033045 87 271 2.0 0.0 0.00 0.00 0.00 9 1004.2
20260510031532 88 297 6.0 0.0 0.00 0.00 0.00 9 1003.9
20260510030026 89 299 7.0 0.0 0.00 0.00 0.00 10 1003.7
20260510024523 90 281 9.0 0.0 0.00 0.00 0.00 10 1003.5
20260510023018 91 277 9.0 0.0 0.00 0.00 0.00 8 1003.3
20260510021531 93 312 9.0 0.0 0.00 0.00 0.00 7 1003.2
20260510020009 95 285 7.0 0.0 0.00 0.00 0.00 7 1002.9
20260510014510 96 237 8.0 0.0 0.00 0.00 0.00 6 1002.9
20260510013123 96 211 9.0 0.0 0.00 0.00 0.00 7 1002.7
20260510011557 97 223 11.0 0.0 0.00 0.00 0.00 7 1002.7
20260510010058 98 221 9.0 0.0 0.00 0.00 0.00 7 1002.7
20260510004548 99 242 9.0 0.0 0.00 0.00 0.00 7 1002.5
20260510003043 99 240 9.0 0.0 0.00 0.00 0.00 7 1002.6
20260510001538 99 269 9.0 0.0 0.00 0.00 0.00 8 1002.6
20260510000033 100 267 9.0 0.0 0.00 0.00 0.00 9 1002.6
20260509234530 100 292 10.0 0.0 0.00 0.00 0.00 9 1002.4
20260509233031 101 310 6.0 0.0 0.00 0.00 0.00 8 1002.5
20260509231520 101 249 4.0 0.0 0.00 0.00 0.00 8 1002.6
20260509230024 100 194 6.0 0.0 0.00 0.00 0.00 8 1002.6
20260509224512 100 178 5.0 0.0 0.00 0.00 0.00 8 1002.8
20260509223008 100 135 5.0 0.0 0.00 0.00 0.00 7 1003.1
20260509221504 100 117 7.0 0.0 0.00 0.00 0.00 7 1003.4
20260509220059 101 104 6.0 0.0 0.00 0.00 0.00 5 1003.5
20260509214555 101 90 6.0 0.0 0.00 0.00 0.00 4 1003.8
20260509213105 100 89 4.0 0.0 0.00 0.00 0.00 5 1004.0
20260509211549 99 69 6.0 0.0 0.00 0.00 0.00 4 1004.3
20260509210046 99 111 5.0 0.0 0.00 0.00 0.00 4 1004.5
20260509204538 100 28 4.0 0.0 0.00 0.00 0.00 4 1004.7